Location: Brachbach
(49.1847°N, 9.7240°E)
Time: 12:38:53
(UTC+00:00)

CZ-2C R/B - Pass Details

Date: 05 August 2024
Orbit: 782 x 869 km, 98.3° (Epoch: 15 September)

Event Time Altitude Azimuth Distance (km) Brightness Sun altitude
Exits shadow 02:25:33 18° 233° (SW) 2,002 4.0 -13.1°
Maximum altitude 02:28:01 24° 269° (W) 1,720 3.9 -12.8°
Drops below altitude 10° 02:32:25 10° 322° (NW) 2,486 5.2 -12.3°
Sets 02:35:16 0° 336° (NNW) 3,413 6.1 -11.9°
